Weather History for Hays, KS

Change the Weather History Date:

Wednesday, December 5, 2012

  Actual Average Record
Temperature  
Mean Temperature 45 °F -  
Max Temperature 62 °F 44 °F 66 °F (2006)
Min Temperature 28 °F 21 °F 8 °F (1997)
Degree Days  
Heating Degree Days 20    
Moisture  
Dew Point 20 °F    
Average Humidity 37    
Maximum Humidity 59    
Minimum Humidity 20    
Precipitation  
Precipitation 0.00 in - - ()
Sea Level Pressure  
Sea Level Pressure 30.05 in    
Wind  
Wind Speed 10 mph (South)    
Max Wind Speed 28 mph    
Max Gust Speed 33 mph    
Visibility 10 miles    
Events      
Averages and records for this station are not official NWS values.
T = Trace of Precipitation, MM = Missing Value Source: NWS Daily Summary

Daily Weather History Graph

Daily Weather History Graph

Search for Another Location

Airport:

Trip Planner

Search our weather history database for the weather conditions in past years. The results will help you decide how hot, cold, wet, or windy it might be!

Date:

Astronomy

Dec. 05, 2012 Rise Set
Actual Time 7:40 AM CST 5:15 PM CST
Civil Twilight 7:11 AM CST 5:44 PM CST
Nautical Twilight 6:37 AM CST 6:17 PM CST
Astronomical Twilight 6:05 AM CST 6:50 PM CST
Moon No Moon Rise 12:07 PM CST (12/5)
Length of Visible Light 10h 33m
Length of Day
9h 34m
Waning Gibbous, 59% of the Moon is Illuminated
Dec 5
Waning Gibbous
Dec 6
Last Quarter
Dec 13
New
Dec 19
First Quarter
Dec 28
Full

Hourly Weather History & Observations

Time (CST) Temp. Windchill Dew Point Humidity Pressure Visibility Wind Dir Wind Speed Gust Speed Precip Events Conditions
12:15 AM 33.8 °F 30.8 °F 17.6 °F 52% 30.25 in 10.0 mi WSW 3.5 mph - N/A   Clear
12:35 AM 32.0 °F 28.7 °F 17.6 °F 55% 30.25 in 10.0 mi SW 3.5 mph - N/A   Clear
12:55 AM 33.8 °F 29.6 °F 17.6 °F 52% 30.25 in 10.0 mi SW 4.6 mph - N/A   Clear
1:15 AM 33.8 °F 29.6 °F 17.6 °F 52% 30.24 in 10.0 mi SW 4.6 mph - N/A   Clear
1:55 AM 30.2 °F - 15.8 °F 55% 30.23 in 10.0 mi Calm Calm - N/A   Clear
2:15 AM 32.0 °F 27.5 °F 15.8 °F 51% 30.23 in 10.0 mi SSW 4.6 mph - N/A   Clear
2:35 AM 33.8 °F 28.6 °F 15.8 °F 48% 30.24 in 10.0 mi SW 5.8 mph - N/A   Clear
2:55 AM 33.8 °F 29.6 °F 15.8 °F 48% 30.25 in 10.0 mi WSW 4.6 mph - N/A   Clear
3:15 AM 35.6 °F - 17.6 °F 48% 30.24 in 10.0 mi Calm Calm - N/A   Clear
3:35 AM 33.8 °F - 15.8 °F 48% 30.23 in 10.0 mi Calm Calm - N/A   Clear
3:55 AM 33.8 °F 30.8 °F 17.6 °F 52% 30.23 in 10.0 mi SW 3.5 mph - N/A   Clear
4:15 AM 30.2 °F - 15.8 °F 55% 30.22 in 10.0 mi Calm Calm - N/A   Clear
4:35 AM 32.0 °F 27.5 °F 15.8 °F 51% 30.21 in 10.0 mi SSE 4.6 mph - N/A   Clear
4:55 AM 30.2 °F 26.7 °F 15.8 °F 55% 30.21 in 10.0 mi SSE 3.5 mph - N/A   Clear
5:15 AM 33.8 °F 30.8 °F 15.8 °F 48% 30.20 in 10.0 mi SSE 3.5 mph - N/A   Clear
5:35 AM 32.0 °F 28.7 °F 14.0 °F 48% 30.20 in 10.0 mi SE 3.5 mph - N/A   Clear
6:15 AM 33.8 °F 29.6 °F 15.8 °F 48% 30.20 in 10.0 mi South 4.6 mph - N/A   Clear
6:35 AM 30.2 °F 24.3 °F 15.8 °F 55% 30.20 in 10.0 mi South 5.8 mph - N/A   Clear
6:55 AM 28.4 °F 22.2 °F 15.8 °F 59% 30.19 in 10.0 mi South 5.8 mph - N/A   Clear
8:35 AM 35.6 °F 29.2 °F 19.4 °F 52% 30.17 in 10.0 mi South 8.1 mph - N/A   Clear
8:55 AM 41.0 °F 33.1 °F 21.2 °F 45% 30.17 in 10.0 mi South 15.0 mph - N/A   Clear
9:15 AM 42.8 °F 36.2 °F 21.2 °F 42% 30.17 in 10.0 mi South 12.7 mph - N/A   Clear
9:35 AM 44.6 °F 38.1 °F 21.2 °F 39% 30.17 in 10.0 mi South 13.8 mph - N/A   Clear
9:55 AM 46.4 °F 40.1 °F 21.2 °F 37% 30.17 in 10.0 mi South 15.0 mph - N/A   Clear
10:15 AM 48.2 °F - 23.0 °F 37% 30.15 in 10.0 mi South 17.3 mph - N/A   Clear
10:35 AM 51.8 °F - 23.0 °F 33% 30.13 in 10.0 mi South 21.9 mph 29.9 mph N/A   Clear
10:55 AM 53.6 °F - 24.8 °F 33% 30.13 in 10.0 mi South 26.5 mph 29.9 mph N/A   Clear
11:15 AM 55.4 °F - 23.0 °F 29% 30.12 in 10.0 mi SSE 27.6 mph 33.4 mph N/A   Clear
11:35 AM 55.4 °F - 23.0 °F 29% 30.12 in 10.0 mi SE 24.2 mph 33.4 mph N/A   Clear
11:55 AM 57.2 °F - 23.0 °F 27% 30.10 in 10.0 mi ESE 26.5 mph 32.2 mph N/A   Clear
12:15 PM 59.0 °F - 21.2 °F 23% 30.08 in 10.0 mi South 25.3 mph 32.2 mph N/A   Clear
12:35 PM 60.8 °F - 21.2 °F 22% 30.07 in 10.0 mi South 18.4 mph 28.8 mph N/A   Clear
12:55 PM 60.8 °F - 21.2 °F 22% 30.05 in 10.0 mi South 25.3 mph - N/A   Clear
1:15 PM 60.8 °F - 21.2 °F 22% 30.03 in 10.0 mi South 26.5 mph 29.9 mph N/A   Clear
1:55 PM 62.6 °F - 21.2 °F 20% 30.00 in 10.0 mi South 25.3 mph 29.9 mph N/A   Clear
2:15 PM 62.6 °F - 21.2 °F 20% 29.99 in 10.0 mi SSW 19.6 mph 26.5 mph N/A   Clear
2:35 PM 60.8 °F - 21.2 °F 22% 29.97 in 10.0 mi South 23.0 mph 31.1 mph N/A   Clear
2:55 PM 60.8 °F - 23.0 °F 23% 29.96 in 10.0 mi South 21.9 mph 27.6 mph N/A   Clear
3:15 PM 60.8 °F - 23.0 °F 23% 29.96 in 10.0 mi South 23.0 mph 29.9 mph N/A   Clear
3:35 PM 60.8 °F - 23.0 °F 23% 29.95 in 10.0 mi South 23.0 mph - N/A   Clear
3:55 PM 59.0 °F - 23.0 °F 25% 29.94 in 10.0 mi South 20.7 mph 26.5 mph N/A   Clear
4:15 PM 59.0 °F - 23.0 °F 25% 29.93 in 10.0 mi South 19.6 mph 24.2 mph N/A   Clear
4:35 PM 59.0 °F - 21.2 °F 23% 29.93 in 10.0 mi South 16.1 mph 21.9 mph N/A   Clear
4:55 PM 57.2 °F - 21.2 °F 25% 29.93 in 10.0 mi South 18.4 mph - N/A   Clear
5:15 PM 55.4 °F - 21.2 °F 26% 29.93 in 10.0 mi South 13.8 mph - N/A   Clear
5:35 PM 55.4 °F - 19.4 °F 25% 29.92 in 10.0 mi South 15.0 mph - N/A   Clear
5:55 PM 53.6 °F - 19.4 °F 26% 29.93 in 10.0 mi South 11.5 mph - N/A   Clear
6:15 PM 50.0 °F - 19.4 °F 30% 29.93 in 10.0 mi South 12.7 mph - N/A   Clear
6:35 PM 50.0 °F - 19.4 °F 30% 29.92 in 10.0 mi SSE 11.5 mph - N/A   Clear
6:55 PM 46.4 °F 40.7 °F 19.4 °F 34% 29.92 in 10.0 mi SSE 12.7 mph - N/A   Clear
7:15 PM 48.2 °F - 21.2 °F 34% 29.91 in 10.0 mi South 15.0 mph - N/A   Clear
7:35 PM 48.2 °F - 23.0 °F 37% 29.90 in 10.0 mi South 17.3 mph 21.9 mph N/A   Clear
7:55 PM 48.2 °F - 23.0 °F 37% 29.90 in 10.0 mi South 15.0 mph - N/A   Clear
8:15 PM 46.4 °F 41.1 °F 21.2 °F 37% 29.91 in 10.0 mi SSE 11.5 mph - N/A   Clear
8:35 PM 46.4 °F 40.1 °F 23.0 °F 40% 29.90 in 10.0 mi South 15.0 mph - N/A   Clear
8:55 PM 46.4 °F 40.7 °F 21.2 °F 37% 29.90 in 10.0 mi South 12.7 mph - N/A   Clear
9:15 PM 44.6 °F 39.2 °F 21.2 °F 39% 29.89 in 10.0 mi South 10.4 mph - N/A   Clear
9:35 PM 46.4 °F 41.1 °F 21.2 °F 37% 29.89 in 10.0 mi South 11.5 mph - N/A   Clear
9:55 PM 46.4 °F 41.1 °F 21.2 °F 37% 29.88 in 10.0 mi South 11.5 mph - N/A   Clear
10:15 PM 44.6 °F 38.4 °F 21.2 °F 39% 29.87 in 10.0 mi South 12.7 mph 17.3 mph N/A   Clear
10:35 PM 46.4 °F 40.7 °F 21.2 °F 37% 29.87 in 10.0 mi South 12.7 mph - N/A   Clear
10:55 PM 46.4 °F 41.1 °F 21.2 °F 37% 29.86 in 10.0 mi South 11.5 mph - N/A   Clear
11:15 PM 46.4 °F 41.5 °F 21.2 °F 37% 29.86 in 10.0 mi South 10.4 mph - N/A   Clear
11:35 PM 46.4 °F 41.5 °F 21.2 °F 37% 29.86 in 10.0 mi South 10.4 mph - N/A   Clear
11:55 PM 46.4 °F 41.1 °F 21.2 °F 37% 29.85 in 10.0 mi South 11.5 mph - N/A   Clear